Regional Weather Roundup
Issued by NWS

Home | Current Version | Previous Version | Graphics & Text | Print | Product List | Glossary On
Versions: 1 2 3 4 5 6 7 8 9 10 11 12 13 14 15 16 17 18 19 20 21 22 23 24 25 26 27 28 29 30 31 32 33 34 35 36 37 38 39 40 41 42 43 44 45 46 47 48 49 50
000
ASUS45 KABQ 031801
RWRNM
WEATHER ROUNDUP FOR NEW MEXICO
NATIONAL WEATHER SERVICE ALBUQUERQUE NM
1200 PM MDT SUN MAY 03 2015

NOTE: "FAIR" MEANS FEW OR NO CLOUDS BELOW 12,000 FEET AGL WITH NO
       SIGNIFICANT WEATHER OR OBSTRUCTIONS TO VISION.

      THIS PRODUCT IS RELEASED AS TWO VERSIONS.  ONE VERSION NEAR
      THE TOP OF THE HOUR CONTAINING PRELIMINARY DATA FROM ALBUQUERQUE
      AND OTHER STATIONS.  A FINAL VERSION WITH ADDITIONAL DATA IS
      ISSUED ABOUT 10 MINUTES AFTER THE HOUR.

NMZ501-503-504-510>518-031900-
NORTHWEST PLATEAU/NORTHCENTRAL MOUNTAINS

CITY           SKY/WX    TMP DP  RH WIND       PRES   REMARKS
FARMINGTON     SUNNY     70  35  27 VRB5      30.06F
6HR MIN TEMP:  52; 6HR MAX TEMP:  70; 6HR PCP: TRACE;

SANTA FE       MOSUNNY   68  31  25 MISG      30.08F
6HR MIN TEMP:  41; 6HR MAX TEMP:  70;

TAOS           PTSUNNY   63  34  34 W7        30.13F
ANGEL FIRE     FAIR      60  31  33 CALM      30.17F

$$
NMZ402-403-502-505>509-031900-
WESTCENTRAL MOUNTAINS/SOUTHWEST MOUNTAINS

CITY           SKY/WX    TMP DP  RH WIND       PRES   REMARKS
GALLUP         MOSUNNY   68  34  28 W8        30.10F
6HR MIN TEMP:  37; 6HR MAX TEMP:  68;

GRANTS         LGT RAIN  66  33  29 E7        30.12F
SILVER CITY      N/A     73  32  21 NW6       30.08F

$$
NMZ407-409-411-412-031900-
SOUTHERN DESERTS

CITY           SKY/WX    TMP DP  RH WIND       PRES   REMARKS
DEMING         SUNNY     79  36  21 W9        30.01F
6HR MIN TEMP:  51; 6HR MAX TEMP:  79;

HOLLOMAN AFB   SUNNY     81  34  18 SW5       29.97F
ALAMOGORDO     SUNNY     81  32  17 W14       29.99F
T OR C         SUNNY     79  29  16 VRB6      30.00F
6HR MIN TEMP:  58; 6HR MAX TEMP:  80;


$$
NMZ519>523-031900-
CENTRAL VALLEYS/CENTRAL HIGHLANDS

CITY           SKY/WX    TMP DP  RH WIND       PRES   REMARKS
ALBUQUERQUE    MOSUNNY   72  33  24 VRB5      30.06F
6HR MIN TEMP:  50; 6HR MAX TEMP:  73;

DOUBLE EAGLE   PTSUNNY   72  34  25 SW8G16    30.08F
MORIARTY ARPT  FAIR      70  26  19 NW5       30.08F
6HR MIN TEMP:  37; 6HR MAX TEMP:  72;

CLINES CORNERS PTSUNNY   67  30  25 W9        30.10F
6HR MIN TEMP:  45; 6HR MAX TEMP:  70;

BELEN          FAIR      73  32  21 NW6       30.04F
6HR MIN TEMP:  51; 6HR MAX TEMP:  74;

SOCORRO        NOT AVBL

$$
NMZ524>526-539-540-031900-
SOUTHCENTRAL MOUNTAINS

CITY           SKY/WX    TMP DP  RH WIND       PRES   REMARKS
RUIDOSO        NOT AVBL

$$
NMZ527>531-031900-
NORTHEAST HIGHLANDS/NORTHEAST PLAINS

CITY           SKY/WX    TMP DP  RH WIND       PRES   REMARKS
LAS VEGAS      PTSUNNY   66  27  23 SW9G23    30.09F
6HR MIN TEMP:  39; 6HR MAX TEMP:  66;

RATON          PTSUNNY   70  31  23 MISG      30.03F
6HR MIN TEMP:  41; 6HR MAX TEMP:  70;

CLAYTON        PTSUNNY   79  37  22 S8        29.97S
6HR MIN TEMP:  50; 6HR MAX TEMP:  80;


$$
NMZ532>537-031900-
EASTCENTRAL PLAINS

CITY           SKY/WX    TMP DP  RH WIND       PRES   REMARKS
TUCUMCARI      PTSUNNY   79  45  29 W9        29.94F
6HR MIN TEMP:  54; 6HR MAX TEMP:  80;

CANNON AFB     NOT AVBL
CLOVIS AIRPORT PTSUNNY   77  45  31 SW10      29.98F

$$
NMZ028-029-538-031900-
SOUTHEAST PLAINS

CITY           SKY/WX    TMP DP  RH WIND       PRES   REMARKS
ROSWELL        MOSUNNY   79  47  32 S10       29.96R
6HR MIN TEMP:  53; 6HR MAX TEMP:  79;

CARLSBAD       SUNNY     83  41  22 E5        29.93F
6HR MIN TEMP:  51; 6HR MAX TEMP:  83;

HOBBS          SUNNY     77  46  33 S6        29.98F


$$



USA.gov is the U.S. government's official web portal to all federal, state and local government web resources and services.